Terug naar catalogus

CZ-6A DEB

ActiefPO
NORAD 61451·DEBRIS·🇨🇳 China

Gelanceerd Aug 6, 2024 vanaf Taiyuan Satellite Launch Center

Loading…

Volgende Passages (komende 24 uur)

TLE

VersSource: Space-Track

Epoch: Sep 14, 2026, 06:44 UTC

1 61451U 24140ZH  26257.28092616  .00004308  00000-0  72652-3 0  9994
2 61451  89.0328 262.6509 0106446 292.7779  66.2218 14.65619545106304

Volg CZ-6A DEB in realtime met AllMySat

Download on the App Store